Regional Weather Roundup
Issued by NWS

Home | Current Version | Previous Version | Graphics & Text | Print | Product List | Glossary On
Versions: 1 2 3 4 5 6 7 8 9 10 11 12 13 14 15 16 17 18 19 20 21 22 23 24 25 26 27 28 29 30 31 32 33 34 35 36 37 38 39 40 41 42 43 44 45 46 47 48 49 50
272
ASUS45 KBOI 300810
RWRID

IDAHO REGIONAL WEATHER ROUNDUP
NATIONAL WEATHER SERVICE BOISE ID
200 AM MDT SUN APR 30 2017

NOTE: "FAIR" INDICATES FEW OR NO CLOUDS BELOW 12000 FEET
WITH NO SIGNIFICANT WEATHER AND/OR OBSTRUCTIONS TO VISIBILITY

IDZ012-014-300900-
SOUTHWEST IDAHO


CITY           SKY/WX    TMP DP  RH WIND       PRES   REMARKS
BOISE          CLOUDY    50  30  46 SE9       30.12F
CALDWELL       CLOUDY    46  37  71 NE6       30.13S
MOUNTAIN HOME  CLOUDY    48  38  69 E5        30.13F
$$

IDZ016-017-300900-
SOUTHCENTRAL IDAHO


CITY           SKY/WX    TMP DP  RH WIND       PRES   REMARKS
BURLEY         CLEAR     40  27  59 SW10      30.14F WCI  33
JEROME         PTCLDY    44  28  53 SE7       30.16F
TWIN FALLS     PTCLDY    40  29  64 S13       30.15F WCI  32
$$

IDZ019>023-300900-
SOUTHEAST IDAHO


CITY           SKY/WX    TMP DP  RH WIND       PRES   REMARKS
IDAHO FALLS    CLEAR     41  26  55 SW9       30.14F
POCATELLO      CLEAR     40  24  53 S8        30.15F WCI  34
REXBURG        CLEAR     43  24  47 S13G23    30.11F
$$

IDZ006-010-011-018-031-032-300900-
CENTRAL IDAHO MOUNTAINS


CITY           SKY/WX    TMP DP  RH WIND       PRES   REMARKS
MCCALL         CLOUDY    40  29  64 CALM      30.14F
HAILEY         MOCLDY    37  28  70 N8        30.17S WCI  31
STANLEY          N/A     32  23  69 S3        30.19S
SALMON         CLOUDY    43  30  61 S5        30.09S
CHALLIS        CLOUDY    45  16  31 E5        30.12F
$$

IDZ002-004-006-007-026-300900-
NORTHERN IDAHO


CITY           SKY/WX    TMP DP  RH WIND       PRES   REMARKS
LEWISTON       CLOUDY    55  42  61 N3        30.07S
LOWELL           N/A     48  42  80 NW5       30.13R
COEUR D`ALENE  LGT RAIN  47  36  65 SW14      30.06F
MULLAN PASS    LGT SNOW  30  28  92 SW9G18    30.04F FOG     WCI  22
$$




USA.gov is the U.S. government's official web portal to all federal, state and local government web resources and services.